Location: Home
(42.5358°N, 72.7383°W)
Time: 07:59:28
(UTC-04:00)

Explorer 11/Cluster Stage 4 - Pass Details

Date: 21 April 2025
Orbit: 463 x 1190 km, 28.8° (Epoch: 14 May)

Event Time Altitude Azimuth Distance (km) Brightness Sun altitude
Rises 06:46:35 0° 235° (SW) 3,493 9.3 7.5°
Reaches altitude 10° 06:50:16 10° 217° (SW) 2,388 8.7 8.2°
Maximum altitude 06:53:43 17° 179° (S) 1,812 8.4 8.8°
Drops below altitude 10° 06:56:48 10° 139° (SE) 2,083 9.3 9.4°
Sets 06:59:43 0° 118° (ESE) 2,858 10.5 9.9°
